KH2EI-13 Weather Reports


time (UTC)temp
F
wind
direction
speed
knots
gust
knots
rain 1hr
in
rain 24hr
in
rain mn
in
humidity
%
barometer
mb
20260504044003 48 0 0.0 0.0 0.00 0.00 0.00 54 1013.3
20260504043004 48 0 0.0 0.0 0.00 0.00 0.00 55 1013.3
20260504042004 48 0 0.0 0.0 0.00 0.00 0.00 53 1013.1
20260504041004 48 0 0.0 0.0 0.00 0.00 0.00 54 1013.0
20260504035004 48 0 0.0 0.0 0.00 0.00 0.00 54 1012.8
20260504034004 48 0 0.0 0.0 0.00 0.00 0.00 53 1012.8
20260504033004 48 0 0.0 0.0 0.00 0.00 0.00 53 1012.7
20260504032004 48 0 0.0 0.0 0.00 0.00 0.00 54 1012.7
20260504031004 48 0 0.0 0.0 0.00 0.00 0.00 54 1012.7
20260504030004 48 0 0.0 0.0 0.00 0.00 0.00 54 1012.6
20260504025005 48 0 0.0 0.0 0.00 0.00 0.00 54 1012.6
20260504024004 48 0 0.0 0.0 0.00 0.00 0.00 56 1012.7
20260504023004 49 0 0.0 0.0 0.00 0.00 0.00 54 1012.6
20260504022004 49 0 0.0 0.0 0.00 0.00 0.00 55 1012.6
20260504021003 49 0 0.0 0.0 0.00 0.00 0.00 54 1012.6
20260504020003 50 0 0.0 0.0 0.00 0.00 0.00 53 1012.7
20260504014003 50 0 0.0 0.0 0.00 0.00 0.00 52 1012.6
20260504013003 50 0 0.0 0.0 0.00 0.00 0.00 51 1012.6
20260504012004 50 0 0.0 0.0 0.00 0.00 0.00 51 1012.5
20260504011004 50 0 0.0 0.0 0.00 0.00 0.00 52 1012.3
20260504004004 52 0 0.0 0.0 0.00 0.00 0.00 48 1012.0
20260504003004 52 0 0.0 0.0 0.00 0.00 0.00 47 1011.9
20260504002004 53 0 0.0 0.0 0.00 0.00 0.00 47 1011.7
20260504000004 54 0 0.0 0.0 0.00 0.00 0.00 46 1011.6
20260503235003 55 0 0.0 0.0 0.00 0.00 0.00 43 1011.5
20260503234014 55 0 0.0 0.0 0.00 0.00 0.00 42 1011.3
20260503233003 56 0 0.0 0.0 0.00 0.00 0.00 43 1011.2
20260503232004 57 0 0.0 0.0 0.00 0.00 0.00 40 1011.2
20260503230004 58 0 0.0 0.0 0.00 0.00 0.00 42 1011.2
20260503225003 58 254 0.0 2.6 0.00 0.00 0.00 36 1011.2
20260503224004 58 327 0.0 2.6 0.00 0.00 0.00 36 1011.1
20260503223003 59 293 0.0 11.3 0.00 0.00 0.00 33 1011.1
20260503222003 59 306 0.0 6.1 0.00 0.00 0.00 34 1011.1
20260503220003 59 325 0.0 4.3 0.00 0.00 0.00 34 1011.1
20260503215003 60 314 0.0 2.6 0.00 0.00 0.00 32 1011.0
20260503214004 60 317 0.0 3.5 0.00 0.00 0.00 33 1011.0
20260503213003 61 313 0.9 11.3 0.00 0.00 0.00 30 1010.9
20260503212003 61 307 0.0 3.5 0.00 0.00 0.00 30 1010.9
20260503211003 62 299 0.9 12.2 0.00 0.00 0.00 30 1011.0
20260503210004 63 0 0.0 0.0 0.00 0.00 0.00 30 1010.9
20260503205003 62 328 0.0 8.7 0.00 0.00 0.00 30 1011.1
20260503204004 61 323 0.9 13.9 0.00 0.00 0.00 30 1011.1
20260503203004 61 316 0.9 13.0 0.00 0.00 0.00 32 1011.0
20260503202004 61 307 0.0 3.5 0.00 0.00 0.00 32 1011.2
20260503201004 59 282 0.0 8.7 0.00 0.00 0.00 36 1011.3
20260503200004 60 335 0.0 3.5 0.00 0.00 0.00 32 1011.5
20260503195005 60 317 0.0 6.1 0.00 0.00 0.00 33 1011.5
20260503194003 59 338 0.9 11.3 0.00 0.00 0.00 35 1011.7
20260503193004 58 317 0.0 5.2 0.00 0.00 0.00 33 1011.7
20260503192004 59 324 0.0 7.8 0.00 0.00 0.00 32 1011.8
20260503191003 58 308 0.0 2.6 0.00 0.00 0.00 35 1011.8
20260503190003 58 313 0.9 10.4 0.00 0.00 0.00 32 1011.8
20260503185004 58 310 0.0 3.5 0.00 0.00 0.00 34 1011.9
20260503184004 58 304 0.9 11.3 0.00 0.00 0.00 35 1012.0
20260503183004 57 319 0.9 12.2 0.00 0.00 0.00 35 1012.0
20260503182004 56 312 0.0 5.2 0.00 0.00 0.00 36 1012.1
20260503181004 56 299 0.9 13.9 0.00 0.00 0.00 35 1012.2
20260503180004 55 311 0.9 7.8 0.00 0.00 0.00 36 1012.3
20260503175004 56 311 0.0 1.7 0.00 0.00 0.00 38 1012.2
20260503172004 54 289 0.0 8.7 0.00 0.00 0.00 41 1012.3
20260503171004 55 285 0.0 2.6 0.00 0.00 0.00 37 1012.5
20260503151003 48 312 0.0 2.6 0.00 0.00 0.00 49 1013.4
20260503081003 43 289 0.0 0.9 0.00 0.00 0.00 57 1010.9
20260503072003 45 0 0.0 0.0 0.00 0.00 0.00 56 1010.6
20260503071004 45 314 0.0 4.3 0.00 0.00 0.00 56 1010.6